Terminal Aerodrome Forecast
Issued by NWS

Home | Current Version | Previous Version | Text Only | Print | Product List | Glossary On
Versions: 1 2 3 4 5 6 7 8 9 10 11 12 13 14 15 16 17 18 19 20 21 22
000
FTUS43 KAPX 180545
TAFPLN
TAF
KPLN 180545Z 1806/1906 20007KT P6SM VCSH OVC015
      TEMPO 1806/1810 4SM -RA BR
     FM181000 24008KT 5SM BR VCSH OVC015
     FM181500 28013G22KT P6SM VCSH OVC015
     FM182100 28015G24KT P6SM OVC025
     FM190200 29011G21KT P6SM BKN040=

USA.gov is the U.S. government's official web portal to all federal, state and local government web resources and services.